Simultaneous Nadir Overpasses (SNOs) Predictions

Prediction of SNOs between GOES-16 and FY3D Satellite Orbit:

Table of predicted SNOs for the next 14.0 days since TLE Epoch: 3/28/2025
Index Date Time (GOES-16) GOES-16 Lat,Lon FY3D Lat,Lon Distance(km) Time Diff (sec)
1 03/29/2025 07:45:29 -0.04, -75.51 -0.73, -72.49 344.61 80
2 03/30/2025 20:10:00 0.03, -75.50 -0.49, -77.72 253.81 80
3 03/31/2025 19:51:12 0.04, -75.51 0.55, -73.16 266.98 80
4 04/02/2025 08:12:56 -0.03, -75.54 0.61, -78.37 323.29 80
5 04/03/2025 07:51:28 -0.04, -75.54 -0.43, -73.81 197.49 80
6 04/04/2025 20:15:58 0.03, -75.53 -0.77, -79.05 400.49 80
7 04/05/2025 19:57:11 0.03, -75.55 0.28, -74.49 121.04 80
8 04/07/2025 08:18:53 -0.02, -75.59 0.91, -79.69 467.37 80
9 04/08/2025 07:57:26 -0.02, -75.61 -0.15, -75.13 54.66 80
10 04/10/2025 20:03:08 0.01, -75.63 -0.03, -75.80 19.08 80
